Rechercher aéroport 
image banner adimage banner adimage banner ad
image banner ad

80CL - Blythe Service Center

Situé à Blythe, United States

ICAO - 80CL, IATA -

Données fournies par Airmate  

Information générale

Coordonnées: N33°36'18" W114°36'8"
Élévation : 297 feet MSL.
Variation magnétique : 13° East
Voir autres Aéroports à California

Données opérationnelles

Special qualification required
Heure actuelle UTC:
Heure actuelle locale:
Météo à : KBLH - Blythe ( 11 km )
METAR: KBLH 292052Z AUTO VRB05KT 10SM CLR 43/11 A2974 RMK AO2 SLP062 T04330111 58025
TAF: KBLH 291753Z 2918/3018 14006KT P6SM FEW150 BKN250 FM300600 16012KT P6SM VCSH SCT080 SCT150 BKN250 FM301000 17015KT P6SM FEW100 SCT150 BKN250
Voir NOTAMs / SUP AIP / TFR affectant cet aéroport [VIEW]
Fréquences de communication: [VIEW]

Pistes:

Coordonnées de l'aéroport

Adresse: Blythe United States

Vue satellite de 80CL